Regional Weather Roundup
Issued by NWS Nashville, TN

Home | Current Version | Previous Version | Text Only | Print | Product List | Glossary On
Versions: 1 2 3 4 5 6 7 8 9 10 11 12 13 14 15 16 17 18 19 20 21 22 23 24 25 26 27 28 29 30 31 32 33 34 35 36 37 38 39 40 41 42 43 44 45 46 47 48 49 50
000
ASUS44 KOHX 221310
RWROHX
MIDDLE TENNESSEE HOURLY WEATHER ROUNDUP
NATIONAL WEATHER SERVICE NASHVILLE TN
700 AM CST SUN JAN 22 2017

NOTE: "FAIR" INDICATES FEW OR NO CLOUDS BELOW 12,000 FEET WITH
NO SIGNIFICANT WEATHER AND/OR OBSTRUCTIONS TO VISIBILITY.

* THESE REPORTS ARE NOT UNDER NWS QUALITY CONTROL AND MAY NOT
  REPORT WEATHER SUCH AS PRECIPITATION AND FOG.


TNZ005>011-023>034-057-059-062>066-078-080-221400
...NORTHERN MIDDLE TENNESSEE...

CITY           SKY/WX    TMP DP  RH WIND       PRES   REMARKS
CLARKSVILLE    CLOUDY    53  49  86 CALM      29.47F
CROSSVILLE     RAIN      51  50  96 E5        29.48F FOG
GALLATIN       CLOUDY    54  52  94 NE3       29.50S
DICKSON        CLOUDY    51  51 100 NE7       29.44F
LEBANON        CLOUDY    54  51  89 NE3       29.44
NASHVILLE      LGT RAIN  54  51  90 N5        29.47R
PORTLAND       CLOUDY    54  52  94 CALM      29.48S
SMYRNA         LGT RAIN  54  53  97 NW3       29.47S
SPRINGFIELD    CLOUDY    55  52  88 CALM      29.47S
WEST NASHVILLE MOCLDY    52  52 100 E3        29.48R
$$
TNZ056-058-060-061-075>077-079-093>097-221400
...SOUTHERN MIDDLE TENNESSEE...

CITY           SKY/WX    TMP DP  RH WIND       PRES   REMARKS
COLUMBIA       CLOUDY   N/A N/A N/A NW3       29.44R
MCMINNVILLE    CLOUDY    54  54 100 CALM      29.47R VSB 3/4
MURFREESBORO   CLOUDY    54  52  93 CALM      29.46R
SHELBYVILLE    CLOUDY    55  55 100 E5        29.46S
TULLAHOMA      MOCLDY    52  52 100 SE8       29.47S
WINCHESTER     PTCLDY    52  52 100 S5        29.48F
$$


...KEY TO REMARKS...
VSB - VISIBILITY IN MILES
WCI - WIND CHILL INDEX
HX  - HEAT INDEX




USA.gov is the U.S. government's official web portal to all federal, state and local government web resources and services.